Hourly Weather Urgut

Today, 11 April, Sunday

Time Temperature Precipitation Wind Pressure Humidity
00:00 +14°C° 0 mm 2 mps 671 mmHg 48%
01:00 +13°C° 0 mm 2 mps 671 mmHg 47%
02:00 +13°C° 0 mm 2 mps 671 mmHg 46%
03:00 +13°C° 0 mm 2 mps 671 mmHg 46%
04:00 +12°C° 0 mm 2 mps 671 mmHg 46%
05:00 +14°C° 0 mm 1 mps 671 mmHg 44%
06:00 +15°C° 0 mm 1 mps 671 mmHg 43%
07:00 +16°C° 0 mm 1 mps 672 mmHg 41%
08:00 +18°C° 0 mm 1 mps 672 mmHg 38%
09:00 +19°C° 0 mm 2 mps 672 mmHg 35%
10:00 +20°C° 0 mm 3 mps 673 mmHg 32%
11:00 +21°C° 0 mm 3 mps 672 mmHg 32%
12:00 +21°C° 0 mm 3 mps 672 mmHg 31%
13:00 +21°C° 0 mm 4 mps 672 mmHg 31%
14:00 +21°C° 0 mm 4 mps 672 mmHg 33%
15:00 +20°C° 0 mm 3 mps 672 mmHg 35%
16:00 +19°C° 0 mm 3 mps 672 mmHg 37%
17:00 +17°C° 0 mm 3 mps 671 mmHg 43%
18:00 +16°C° 0 mm 2 mps 671 mmHg 48%
19:00 +14°C° 0 mm 1 mps 671 mmHg 53%
20:00 +13°C° 0 mm 1 mps 671 mmHg 54%
21:00 +13°C° 0 mm 1 mps 671 mmHg 54%
22:00 +12°C° 0 mm 2 mps 670 mmHg 55%
23:00 +12°C° 0 mm 1 mps 670 mmHg 55%

Tomorrow, 12 April, Monday

Time Temperature Precipitation Wind Pressure Humidity
00:00 +12°C° 0 mm 1 mps 670 mmHg 56%
01:00 +12°C° 0 mm 1 mps 669 mmHg 57%
02:00 +11°C° 0 mm 1 mps 670 mmHg 56%
03:00 +11°C° 0 mm 1 mps 670 mmHg 56%
04:00 +11°C° 0 mm 1 mps 670 mmHg 55%
05:00 +12°C° 0 mm 1 mps 670 mmHg 52%
06:00 +13°C° 0 mm 1 mps 670 mmHg 49%
07:00 +14°C° 0 mm 1 mps 671 mmHg 46%
08:00 +16°C° 0 mm 2 mps 671 mmHg 43%
09:00 +17°C° 0 mm 3 mps 671 mmHg 39%
10:00 +18°C° 0 mm 3 mps 671 mmHg 36%
11:00 +19°C° 0 mm 4 mps 671 mmHg 35%
12:00 +20°C° 0 mm 5 mps 672 mmHg 35%
13:00 +21°C° 0 mm 6 mps 672 mmHg 34%
14:00 +20°C° 0 mm 5 mps 671 mmHg 35%
15:00 +20°C° 0 mm 5 mps 671 mmHg 35%
16:00 +19°C° 0 mm 4 mps 671 mmHg 36%
17:00 +18°C° 0 mm 3 mps 671 mmHg 41%
18:00 +16°C° 0 mm 2 mps 671 mmHg 46%
19:00 +14°C° 0 mm 1 mps 671 mmHg 51%
20:00 +13°C° 0 mm 1 mps 671 mmHg 53%
21:00 +13°C° 0 mm 1 mps 671 mmHg 54%
22:00 +12°C° 0 mm 1 mps 671 mmHg 56%
23:00 +12°C° 0 mm 1 mps 671 mmHg 56%

Day after tomorrow, 13 April, Tuesday

Time Temperature Precipitation Wind Pressure Humidity
00:00 +12°C° 0 mm 1 mps 671 mmHg 56%
01:00 +12°C° 0 mm 1 mps 671 mmHg 55%
02:00 +12°C° 0 mm 1 mps 671 mmHg 56%
03:00 +12°C° 0 mm 1 mps 671 mmHg 56%
04:00 +13°C° 0 mm 1 mps 671 mmHg 56%
05:00 +13°C° 0.2 mm 2 mps 671 mmHg 59%
06:00 +13°C° 0.2 mm 2 mps 671 mmHg 62%
07:00 +14°C° 0.2 mm 2 mps 672 mmHg 65%
08:00 +14°C° 0.2 mm 2 mps 672 mmHg 62%
09:00 +14°C° 0.2 mm 3 mps 672 mmHg 60%
10:00 +16°C° 0.2 mm 3 mps 672 mmHg 58%
11:00 +16°C° 0.3 mm 3 mps 672 mmHg 57%
12:00 +16°C° 0.3 mm 3 mps 672 mmHg 57%
13:00 +16°C° 0.3 mm 3 mps 672 mmHg 57%
14:00 +16°C° 0.1 mm 3 mps 672 mmHg 58%
15:00 +16°C° 0.1 mm 3 mps 672 mmHg 59%
16:00 +15°C° 0.1 mm 2 mps 672 mmHg 60%
17:00 +15°C° 0 mm 2 mps 672 mmHg 63%
18:00 +14°C° 0 mm 2 mps 672 mmHg 65%
19:00 +13°C° 0 mm 2 mps 672 mmHg 68%
20:00 +13°C° 0 mm 2 mps 671 mmHg 67%
21:00 +13°C° 0 mm 2 mps 671 mmHg 67%
22:00 +13°C° 0 mm 2 mps 671 mmHg 66%
23:00 +12°C° 0.1 mm 2 mps 671 mmHg 67%

14 April, Wednesday

Time Temperature Precipitation Wind Pressure Humidity
00:00 +12°C° 0.1 mm 2 mps 670 mmHg 67%
01:00 +12°C° 0.1 mm 1 mps 670 mmHg 68%
02:00 +12°C° 0.2 mm 1 mps 670 mmHg 68%
03:00 +12°C° 0.2 mm 1 mps 670 mmHg 68%
04:00 +10°C° 0.2 mm 2 mps 670 mmHg 68%
05:00 +13°C° 0 mm 1 mps 670 mmHg 62%
06:00 +14°C° 0 mm 1 mps 671 mmHg 57%
07:00 +15°C° 0 mm 1 mps 671 mmHg 52%
08:00 +18°C° 0 mm 1 mps 671 mmHg 48%
09:00 +19°C° 0 mm 1 mps 671 mmHg 44%
10:00 +20°C° 0 mm 2 mps 671 mmHg 40%
11:00 +21°C° 0 mm 2 mps 671 mmHg 40%
12:00 +21°C° 0 mm 3 mps 670 mmHg 40%
13:00 +22°C° 0 mm 3 mps 670 mmHg 39%
14:00 +22°C° 0 mm 3 mps 670 mmHg 42%
15:00 +21°C° 0 mm 3 mps 670 mmHg 44%
16:00 +21°C° 0 mm 3 mps 669 mmHg 46%
17:00 +19°C° 0.1 mm 2 mps 669 mmHg 53%
18:00 +17°C° 0.1 mm 2 mps 669 mmHg 61%
19:00 +16°C° 0.1 mm 1 mps 668 mmHg 68%
20:00 +15°C° 0 mm 1 mps 668 mmHg 67%
21:00 +15°C° 0 mm 1 mps 668 mmHg 67%
22:00 +15°C° 0 mm 1 mps 668 mmHg 66%
23:00 +15°C° 0 mm 1 mps 668 mmHg 66%

15 April, Thursday

Time Temperature Precipitation Wind Pressure Humidity
00:00 +14°C° 0 mm 1 mps 668 mmHg 67%
01:00 +14°C° 0 mm 1 mps 667 mmHg 67%
02:00 +14°C° 0 mm 1 mps 667 mmHg 66%
03:00 +14°C° 0 mm 1 mps 668 mmHg 66%
04:00 +13°C° 0 mm 1 mps 668 mmHg 66%
05:00 +14°C° 0 mm 1 mps 668 mmHg 62%
06:00 +15°C° 0 mm 1 mps 669 mmHg 58%
07:00 +16°C° 0 mm 1 mps 669 mmHg 54%
08:00 +18°C° 0 mm 1 mps 669 mmHg 48%
09:00 +19°C° 0 mm 2 mps 670 mmHg 42%
10:00 +20°C° 0 mm 2 mps 670 mmHg 35%
11:00 +20°C° 0 mm 3 mps 670 mmHg 33%
12:00 +21°C° 0 mm 3 mps 670 mmHg 31%
13:00 +21°C° 0 mm 3 mps 670 mmHg 29%
14:00 +21°C° 0 mm 3 mps 670 mmHg 30%
15:00 +21°C° 0 mm 3 mps 670 mmHg 30%
16:00 +20°C° 0 mm 2 mps 670 mmHg 30%
17:00 +19°C° 0 mm 2 mps 669 mmHg 34%
18:00 +18°C° 0 mm 1 mps 669 mmHg 38%
19:00 +15°C° 0 mm 1 mps 669 mmHg 42%
20:00 +15°C° 0 mm 1 mps 668 mmHg 42%
21:00 +14°C° 0 mm 1 mps 668 mmHg 42%
22:00 +14°C° 0 mm 1 mps 668 mmHg 42%
23:00 +14°C° 0 mm 1 mps 668 mmHg 42%

16 April, Friday

Time Temperature Precipitation Wind Pressure Humidity
00:00 +14°C° 0 mm 1 mps 668 mmHg 43%
01:00 +13°C° 0 mm 1 mps 667 mmHg 44%
02:00 +13°C° 0 mm 1 mps 667 mmHg 44%
03:00 +13°C° 0 mm 1 mps 667 mmHg 45%
04:00 +14°C° 0 mm 2 mps 667 mmHg 46%
05:00 +15°C° 0 mm 1 mps 667 mmHg 46%
06:00 +16°C° 0 mm 1 mps 668 mmHg 45%
07:00 +18°C° 0 mm 1 mps 668 mmHg 45%
08:00 +18°C° 0 mm 1 mps 669 mmHg 44%
09:00 +18°C° 0 mm 2 mps 669 mmHg 42%
10:00 +18°C° 0 mm 3 mps 669 mmHg 41%
11:00 +18°C° 0.1 mm 3 mps 669 mmHg 44%
12:00 +18°C° 0.1 mm 2 mps 669 mmHg 46%
13:00 +18°C° 0.1 mm 2 mps 669 mmHg 48%
14:00 +17°C° 0.3 mm 3 mps 669 mmHg 53%
15:00 +16°C° 0.3 mm 3 mps 669 mmHg 59%
16:00 +14°C° 0.3 mm 4 mps 669 mmHg 64%
17:00 +13°C° 0.6 mm 3 mps 669 mmHg 71%
18:00 +13°C° 0.6 mm 2 mps 670 mmHg 78%
19:00 +12°C° 0.6 mm 1 mps 670 mmHg 85%
20:00 +12°C° 0.1 mm 1 mps 670 mmHg 84%
21:00 +12°C° 0.1 mm 1 mps 670 mmHg 83%
22:00 +12°C° 0.1 mm 1 mps 669 mmHg 82%
23:00 +11°C° 0 mm 1 mps 669 mmHg 81%
Show more